Year,Month,Day,Hour,Minute,Value (Times are PST for temperature in C)
2009,07,05,00,00,17.50
2009,07,05,00,01,17.50
2009,07,05,00,02,17.50
2009,07,05,00,03,17.50
2009,07,05,00,04,17.50
2009,07,05,00,05,17.40
2009,07,05,00,06,17.40
2009,07,05,00,07,17.40
2009,07,05,00,08,17.40
2009,07,05,00,09,17.40
2009,07,05,00,10,17.40
2009,07,05,00,11,17.40
2009,07,05,00,12,17.40
2009,07,05,00,13,17.30
2009,07,05,00,14,17.30
2009,07,05,00,15,17.30
2009,07,05,00,16,17.30
2009,07,05,00,17,17.30
2009,07,05,00,18,17.30
2009,07,05,00,19,17.30
2009,07,05,00,20,17.30
2009,07,05,00,21,17.30
2009,07,05,00,22,17.30
2009,07,05,00,23,17.30
2009,07,05,00,24,17.30
2009,07,05,00,25,17.30
2009,07,05,00,26,17.30
2009,07,05,00,27,17.30
2009,07,05,00,28,17.30
2009,07,05,00,29,17.30
2009,07,05,00,30,17.20
2009,07,05,00,31,17.20
2009,07,05,00,32,17.20
2009,07,05,00,33,17.10
2009,07,05,00,34,17.10
2009,07,05,00,35,17.10
2009,07,05,00,36,17.00
2009,07,05,00,37,17.00
2009,07,05,00,38,17.00
2009,07,05,00,39,17.00
2009,07,05,00,40,16.90
2009,07,05,00,41,16.90
2009,07,05,00,42,16.90
2009,07,05,00,43,16.90
2009,07,05,00,44,16.90
2009,07,05,00,45,16.80
2009,07,05,00,46,16.80
2009,07,05,00,47,16.80
2009,07,05,00,48,16.80
2009,07,05,00,49,16.80
2009,07,05,00,50,16.90
2009,07,05,00,51,16.90
2009,07,05,00,52,16.80
2009,07,05,00,53,16.80
2009,07,05,00,54,16.80
2009,07,05,00,55,16.80
2009,07,05,00,56,16.80
2009,07,05,00,57,16.80
2009,07,05,00,58,16.80
2009,07,05,00,59,16.80
2009,07,05,01,00,16.80
2009,07,05,01,01,16.80
2009,07,05,01,02,16.80
2009,07,05,01,03,16.80
2009,07,05,01,04,16.80
2009,07,05,01,05,16.80
2009,07,05,01,06,16.80
2009,07,05,01,07,16.80
2009,07,05,01,08,16.80
2009,07,05,01,09,16.70
2009,07,05,01,10,16.70
2009,07,05,01,11,16.70
2009,07,05,01,12,16.70
2009,07,05,01,13,16.70
2009,07,05,01,14,16.60
2009,07,05,01,15,16.60
2009,07,05,01,16,16.40
2009,07,05,01,17,16.40
2009,07,05,01,18,16.40
2009,07,05,01,19,16.40
2009,07,05,01,20,16.30
2009,07,05,01,21,16.30
2009,07,05,01,22,16.30
2009,07,05,01,23,16.30
2009,07,05,01,24,16.20
2009,07,05,01,25,16.20
2009,07,05,01,26,16.20
2009,07,05,01,27,16.20
2009,07,05,01,28,16.10
2009,07,05,01,29,16.10
2009,07,05,01,30,16.10
2009,07,05,01,31,16.10
2009,07,05,01,32,16.10
2009,07,05,01,33,16.10
2009,07,05,01,34,16.10
2009,07,05,01,35,16.10
2009,07,05,01,36,16.10
2009,07,05,01,37,16.10
2009,07,05,01,38,16.00
2009,07,05,01,39,15.90
2009,07,05,01,40,15.90
2009,07,05,01,41,15.90
2009,07,05,01,42,15.90
2009,07,05,01,43,15.90
2009,07,05,01,44,15.90
2009,07,05,01,45,15.90
2009,07,05,01,46,15.90
2009,07,05,01,47,15.90
2009,07,05,01,48,15.90
2009,07,05,01,49,15.90
2009,07,05,01,50,15.90
2009,07,05,01,51,15.90
2009,07,05,01,52,15.90
2009,07,05,01,53,15.90
2009,07,05,01,54,15.90
2009,07,05,01,55,15.90
2009,07,05,01,56,15.90
2009,07,05,01,57,15.80
2009,07,05,01,58,15.80
2009,07,05,01,59,15.80
2009,07,05,02,00,15.80
2009,07,05,02,01,15.80
2009,07,05,02,02,15.80
2009,07,05,02,03,15.80
2009,07,05,02,04,15.80
2009,07,05,02,05,15.80
2009,07,05,02,06,15.80
2009,07,05,02,07,15.80
2009,07,05,02,08,15.80
2009,07,05,02,09,15.90
2009,07,05,02,10,15.90
2009,07,05,02,11,15.90
2009,07,05,02,12,15.90
2009,07,05,02,13,15.90
2009,07,05,02,14,15.90
2009,07,05,02,15,15.90
2009,07,05,02,16,16.10
2009,07,05,02,17,16.10
2009,07,05,02,18,16.10
2009,07,05,02,19,16.10
2009,07,05,02,20,16.10
2009,07,05,02,21,16.10
2009,07,05,02,22,16.10
2009,07,05,02,23,16.10
2009,07,05,02,24,16.10
2009,07,05,02,25,16.10
2009,07,05,02,26,16.10
2009,07,05,02,27,16.10
2009,07,05,02,28,16.10
2009,07,05,02,29,16.10
2009,07,05,02,30,16.10
2009,07,05,02,31,16.10
2009,07,05,02,32,16.10
2009,07,05,02,33,16.00
2009,07,05,02,34,15.90
2009,07,05,02,35,15.80
2009,07,05,02,36,15.80
2009,07,05,02,37,15.70
2009,07,05,02,38,15.70
2009,07,05,02,39,15.60
2009,07,05,02,40,15.50
2009,07,05,02,41,15.50
2009,07,05,02,42,15.40
2009,07,05,02,43,15.40
2009,07,05,02,44,15.30
2009,07,05,02,45,15.30
2009,07,05,02,46,15.30
2009,07,05,02,47,15.30
2009,07,05,02,48,15.20
2009,07,05,02,49,15.20
2009,07,05,02,50,15.10
2009,07,05,02,51,15.10
2009,07,05,02,52,15.10
2009,07,05,02,53,15.00
2009,07,05,02,54,15.00
2009,07,05,02,55,15.00
2009,07,05,02,56,15.00
2009,07,05,02,57,14.90
2009,07,05,02,58,14.90
2009,07,05,02,59,14.90
2009,07,05,03,00,14.80
2009,07,05,03,01,14.80
2009,07,05,03,02,14.80
2009,07,05,03,03,14.80
2009,07,05,03,04,14.80
2009,07,05,03,05,14.70
2009,07,05,03,06,14.70
2009,07,05,03,07,14.70
2009,07,05,03,08,14.60
2009,07,05,03,09,14.60
2009,07,05,03,10,14.60
2009,07,05,03,11,14.60
2009,07,05,03,12,14.60
2009,07,05,03,13,14.50
2009,07,05,03,14,14.50
2009,07,05,03,15,14.50
2009,07,05,03,16,14.50
2009,07,05,03,17,14.50
2009,07,05,03,18,14.50
2009,07,05,03,19,14.50
2009,07,05,03,20,14.50
2009,07,05,03,21,14.50
2009,07,05,03,22,14.50
2009,07,05,03,23,14.60
2009,07,05,03,24,14.60
2009,07,05,03,25,14.60
2009,07,05,03,26,14.60
2009,07,05,03,27,14.60
2009,07,05,03,28,14.60
2009,07,05,03,29,14.60
2009,07,05,03,30,14.60
2009,07,05,03,31,14.60
2009,07,05,03,32,14.60
2009,07,05,03,33,14.60
2009,07,05,03,34,14.60
2009,07,05,03,35,14.60
2009,07,05,03,36,14.60
2009,07,05,03,37,14.50
2009,07,05,03,38,14.50
2009,07,05,03,39,14.50
2009,07,05,03,40,14.50
2009,07,05,03,41,14.50
2009,07,05,03,42,14.40
2009,07,05,03,43,14.40
2009,07,05,03,44,14.40
2009,07,05,03,45,14.30
2009,07,05,03,46,14.30
2009,07,05,03,47,14.30
2009,07,05,03,48,14.20
2009,07,05,03,49,14.20
2009,07,05,03,50,14.20
2009,07,05,03,51,14.20
2009,07,05,03,52,14.20
2009,07,05,03,53,14.20
2009,07,05,03,54,14.20
2009,07,05,03,55,14.20
2009,07,05,03,56,14.20
2009,07,05,03,57,14.20
2009,07,05,03,58,14.20
2009,07,05,03,59,14.20
2009,07,05,04,00,14.20
2009,07,05,04,01,14.20
2009,07,05,04,02,14.20
2009,07,05,04,03,14.20
2009,07,05,04,04,14.20
2009,07,05,04,05,14.20
2009,07,05,04,06,14.20
2009,07,05,04,07,14.20
2009,07,05,04,08,14.20
2009,07,05,04,09,14.20
2009,07,05,04,10,14.10
2009,07,05,04,11,14.10
2009,07,05,04,12,14.10
2009,07,05,04,13,14.10
2009,07,05,04,14,14.00
2009,07,05,04,15,14.00
2009,07,05,04,16,14.00
2009,07,05,04,17,13.90
2009,07,05,04,18,13.90
2009,07,05,04,19,13.90
2009,07,05,04,20,13.90
2009,07,05,04,21,13.90
2009,07,05,04,22,13.80
2009,07,05,04,23,13.80
2009,07,05,04,24,13.80
2009,07,05,04,25,13.80
2009,07,05,04,26,13.80
2009,07,05,04,27,13.70
2009,07,05,04,28,13.70
2009,07,05,04,29,13.70
2009,07,05,04,30,13.70
2009,07,05,04,31,13.70
2009,07,05,04,32,13.70
2009,07,05,04,33,13.70
2009,07,05,04,34,13.70
2009,07,05,04,35,13.70
2009,07,05,04,36,13.70
2009,07,05,04,37,13.70
2009,07,05,04,38,13.70
2009,07,05,04,39,13.70
2009,07,05,04,40,13.70
2009,07,05,04,41,13.70
2009,07,05,04,42,13.60
2009,07,05,04,43,13.60
2009,07,05,04,44,13.60
2009,07,05,04,45,13.60
2009,07,05,04,46,13.60
2009,07,05,04,47,13.60
2009,07,05,04,48,13.60
2009,07,05,04,49,13.60
2009,07,05,04,50,13.50
2009,07,05,04,51,13.50
2009,07,05,04,52,13.50
2009,07,05,04,53,13.50
2009,07,05,04,54,13.50
2009,07,05,04,55,13.50
2009,07,05,04,56,13.50
2009,07,05,04,57,13.50
2009,07,05,04,58,13.50
2009,07,05,04,59,13.50
2009,07,05,05,00,13.50
2009,07,05,05,01,13.50
2009,07,05,05,02,13.50
2009,07,05,05,03,13.50
2009,07,05,05,04,13.50
2009,07,05,05,05,13.50
2009,07,05,05,06,13.50
2009,07,05,05,07,13.50
2009,07,05,05,08,13.50
2009,07,05,05,09,13.50
2009,07,05,05,10,13.50
2009,07,05,05,11,13.50
2009,07,05,05,12,13.50
2009,07,05,05,13,13.50
2009,07,05,05,14,13.50
2009,07,05,05,15,13.50
2009,07,05,05,16,13.50
2009,07,05,05,17,13.60
2009,07,05,05,18,13.60
2009,07,05,05,19,13.60
2009,07,05,05,20,13.60
2009,07,05,05,21,13.70
2009,07,05,05,22,13.70
2009,07,05,05,23,13.70
2009,07,05,05,24,13.70
2009,07,05,05,25,13.70
2009,07,05,05,26,13.70
2009,07,05,05,27,13.70
2009,07,05,05,28,13.70
2009,07,05,05,29,13.70
2009,07,05,05,30,13.80
2009,07,05,05,31,13.80
2009,07,05,05,32,13.80
2009,07,05,05,33,13.80
2009,07,05,05,34,13.80
2009,07,05,05,35,13.80
2009,07,05,05,36,13.80
2009,07,05,05,37,13.80
2009,07,05,05,38,13.80
2009,07,05,05,39,13.80
2009,07,05,05,40,13.80
2009,07,05,05,41,13.80
2009,07,05,05,42,13.80
2009,07,05,05,43,13.80
2009,07,05,05,44,13.80
2009,07,05,05,45,13.80
2009,07,05,05,46,13.70
2009,07,05,05,47,13.80
2009,07,05,05,48,13.80
2009,07,05,05,49,13.80
2009,07,05,05,50,13.80
2009,07,05,05,51,13.80
2009,07,05,05,52,13.80
2009,07,05,05,53,13.80
2009,07,05,05,54,13.80
2009,07,05,05,55,13.80
2009,07,05,05,56,13.80
2009,07,05,05,57,13.90
2009,07,05,05,58,13.90
2009,07,05,05,59,13.90
2009,07,05,06,00,13.90
2009,07,05,06,01,13.90
2009,07,05,06,02,13.90
2009,07,05,06,03,13.90
2009,07,05,06,04,13.90
2009,07,05,06,05,13.90
2009,07,05,06,06,13.90
2009,07,05,06,07,13.90
2009,07,05,06,08,13.90
2009,07,05,06,09,13.90
2009,07,05,06,10,13.90
2009,07,05,06,11,13.90
2009,07,05,06,12,13.90
2009,07,05,06,13,14.00
2009,07,05,06,14,14.00
2009,07,05,06,15,14.00
2009,07,05,06,16,14.00
2009,07,05,06,17,14.00
2009,07,05,06,18,14.00
2009,07,05,06,19,14.10
2009,07,05,06,20,14.10
2009,07,05,06,21,14.10
2009,07,05,06,22,14.10
2009,07,05,06,23,14.10
2009,07,05,06,24,14.20
2009,07,05,06,25,14.20
2009,07,05,06,26,14.20
2009,07,05,06,27,14.20
2009,07,05,06,28,14.20
2009,07,05,06,29,14.20
2009,07,05,06,30,14.20
2009,07,05,06,31,14.20
2009,07,05,06,32,14.20
2009,07,05,06,33,14.20
2009,07,05,06,34,14.20
2009,07,05,06,35,14.20
2009,07,05,06,36,14.20
2009,07,05,06,37,14.20
2009,07,05,06,38,14.20
2009,07,05,06,39,14.20
2009,07,05,06,40,14.30
2009,07,05,06,41,14.30
2009,07,05,06,42,14.30
2009,07,05,06,43,14.30
2009,07,05,06,44,14.30
2009,07,05,06,45,14.30
2009,07,05,06,46,14.40
2009,07,05,06,47,14.40
2009,07,05,06,48,14.40
2009,07,05,06,49,14.40
2009,07,05,06,50,14.40
2009,07,05,06,51,14.50
2009,07,05,06,52,14.50
2009,07,05,06,53,14.50
2009,07,05,06,54,14.60
2009,07,05,06,55,14.60
2009,07,05,06,56,14.60
2009,07,05,06,57,14.70
2009,07,05,06,58,14.70
2009,07,05,06,59,14.80
2009,07,05,07,00,14.80
2009,07,05,07,01,14.80
2009,07,05,07,02,14.80
2009,07,05,07,03,14.80
2009,07,05,07,04,14.90
2009,07,05,07,05,14.90
2009,07,05,07,06,15.00
2009,07,05,07,07,15.00
2009,07,05,07,08,15.00
2009,07,05,07,09,15.10
2009,07,05,07,10,15.10
2009,07,05,07,11,15.10
2009,07,05,07,12,15.10
2009,07,05,07,13,15.10
2009,07,05,07,14,15.20
2009,07,05,07,15,15.20
2009,07,05,07,16,15.20
2009,07,05,07,17,15.20
2009,07,05,07,18,15.20
2009,07,05,07,19,15.30
2009,07,05,07,20,15.30
2009,07,05,07,21,15.30
2009,07,05,07,22,15.30
2009,07,05,07,23,15.40
2009,07,05,07,24,15.50
2009,07,05,07,25,15.50
2009,07,05,07,26,15.60
2009,07,05,07,27,15.60
2009,07,05,07,28,15.70
2009,07,05,07,29,15.80
2009,07,05,07,30,15.80
2009,07,05,07,31,15.90
2009,07,05,07,32,16.00
2009,07,05,07,33,16.10
2009,07,05,07,34,16.10
2009,07,05,07,35,16.20
2009,07,05,07,36,16.20
2009,07,05,07,37,16.30
2009,07,05,07,38,16.40
2009,07,05,07,39,16.40
2009,07,05,07,40,16.40
2009,07,05,07,41,16.50
2009,07,05,07,42,16.60
2009,07,05,07,43,16.70
2009,07,05,07,44,16.70
2009,07,05,07,45,16.80
2009,07,05,07,46,16.90
2009,07,05,07,47,17.00
2009,07,05,07,48,17.00
2009,07,05,07,49,17.20
2009,07,05,07,50,17.30
2009,07,05,07,51,17.50
2009,07,05,07,52,17.50
2009,07,05,07,53,17.70
2009,07,05,07,54,17.80
2009,07,05,07,55,18.00
2009,07,05,07,56,18.10
2009,07,05,07,57,18.20
2009,07,05,07,58,18.30
2009,07,05,07,59,18.30
2009,07,05,08,00,18.40
2009,07,05,08,01,18.50
2009,07,05,08,02,18.60
2009,07,05,08,03,18.60
2009,07,05,08,04,18.70
2009,07,05,08,05,18.80
2009,07,05,08,06,18.80
2009,07,05,08,07,18.90
2009,07,05,08,08,18.90
2009,07,05,08,09,19.00
2009,07,05,08,10,19.10
2009,07,05,08,11,19.10
2009,07,05,08,12,19.20
2009,07,05,08,13,19.20
2009,07,05,08,14,19.30
2009,07,05,08,15,19.40
2009,07,05,08,16,19.40
2009,07,05,08,17,19.50
2009,07,05,08,18,19.50
2009,07,05,08,19,19.50
2009,07,05,08,20,19.60
2009,07,05,08,21,19.60
2009,07,05,08,22,19.70
2009,07,05,08,23,19.70
2009,07,05,08,24,19.80
2009,07,05,08,25,19.80
2009,07,05,08,26,19.90
2009,07,05,08,27,19.90
2009,07,05,08,28,19.90
2009,07,05,08,29,20.00
2009,07,05,08,30,20.10
2009,07,05,08,31,20.20
2009,07,05,08,32,20.20
2009,07,05,08,33,20.20
2009,07,05,08,34,20.20
2009,07,05,08,35,20.20
2009,07,05,08,36,20.20
2009,07,05,08,37,20.20
2009,07,05,08,38,20.20
2009,07,05,08,39,20.20
2009,07,05,08,40,20.30
2009,07,05,08,41,20.30
2009,07,05,08,42,20.30
2009,07,05,08,43,20.30
2009,07,05,08,44,20.40
2009,07,05,08,45,20.40
2009,07,05,08,46,20.40
2009,07,05,08,47,20.40
2009,07,05,08,48,20.40
2009,07,05,08,49,20.40
2009,07,05,08,50,20.40
2009,07,05,08,51,20.40
2009,07,05,08,52,20.40
2009,07,05,08,53,20.40
2009,07,05,08,54,20.40
2009,07,05,08,55,20.40
2009,07,05,08,56,20.40
2009,07,05,08,57,20.40
2009,07,05,08,58,20.40
2009,07,05,08,59,20.40
2009,07,05,09,00,20.40
2009,07,05,09,01,20.30
2009,07,05,09,02,20.30
2009,07,05,09,03,20.30
2009,07,05,09,04,20.20
2009,07,05,09,05,20.20
2009,07,05,09,06,20.20
2009,07,05,09,07,20.20
2009,07,05,09,08,20.20
2009,07,05,09,09,20.20
2009,07,05,09,10,20.20
2009,07,05,09,11,20.20
2009,07,05,09,12,20.20
2009,07,05,09,13,20.30
2009,07,05,09,14,20.30
2009,07,05,09,15,20.30
2009,07,05,09,16,20.20
2009,07,05,09,17,20.20
2009,07,05,09,18,20.20
2009,07,05,09,19,20.20
2009,07,05,09,20,20.20
2009,07,05,09,21,20.20
2009,07,05,09,22,20.20
2009,07,05,09,23,20.20
2009,07,05,09,24,20.20
2009,07,05,09,25,20.20
2009,07,05,09,26,20.20
2009,07,05,09,27,20.20
2009,07,05,09,28,20.20
2009,07,05,09,29,20.20
2009,07,05,09,30,20.20
2009,07,05,09,31,20.30
2009,07,05,09,32,20.30
2009,07,05,09,33,20.40
2009,07,05,09,34,20.40
2009,07,05,09,35,20.50
2009,07,05,09,36,20.50
2009,07,05,09,37,20.60
2009,07,05,09,38,20.70
2009,07,05,09,39,20.80
2009,07,05,09,40,20.80
2009,07,05,09,41,20.90
2009,07,05,09,42,20.90
2009,07,05,09,43,21.00
2009,07,05,09,44,21.00
2009,07,05,09,45,21.10
2009,07,05,09,46,21.10
2009,07,05,09,47,21.20
2009,07,05,09,48,21.30
2009,07,05,09,49,21.40
2009,07,05,09,50,21.50
2009,07,05,09,51,21.60
2009,07,05,09,52,21.60
2009,07,05,09,53,21.70
2009,07,05,09,54,21.80
2009,07,05,09,55,21.90
2009,07,05,09,56,21.90
2009,07,05,09,57,21.90
2009,07,05,09,58,21.90
2009,07,05,09,59,22.00
2009,07,05,10,00,22.00
2009,07,05,10,01,22.00
2009,07,05,10,02,22.10
2009,07,05,10,03,22.10
2009,07,05,10,04,22.10
2009,07,05,10,05,22.20
2009,07,05,10,06,22.20
2009,07,05,10,07,22.30
2009,07,05,10,08,22.40
2009,07,05,10,09,22.40
2009,07,05,10,10,22.50
2009,07,05,10,11,22.50
2009,07,05,10,12,22.60
2009,07,05,10,13,22.60
2009,07,05,10,14,22.60
2009,07,05,10,15,22.70
2009,07,05,10,16,22.70
2009,07,05,10,17,22.70
2009,07,05,10,18,22.70
2009,07,05,10,19,22.70
2009,07,05,10,20,22.70
2009,07,05,10,21,22.70
2009,07,05,10,22,22.80
2009,07,05,10,23,22.80
2009,07,05,10,24,22.80
2009,07,05,10,25,22.80
2009,07,05,10,26,22.80
2009,07,05,10,27,22.80
2009,07,05,10,28,22.80
2009,07,05,10,29,22.80
2009,07,05,10,30,22.80
2009,07,05,10,31,22.80
2009,07,05,10,32,22.90
2009,07,05,10,33,22.90
2009,07,05,10,34,22.90
2009,07,05,10,35,23.00
2009,07,05,10,36,23.10
2009,07,05,10,37,23.10
2009,07,05,10,38,23.20
2009,07,05,10,39,23.30
2009,07,05,10,40,23.30
2009,07,05,10,41,23.30
2009,07,05,10,42,23.30
2009,07,05,10,43,23.40
2009,07,05,10,44,23.40
2009,07,05,10,45,23.50
2009,07,05,10,46,23.60
2009,07,05,10,47,23.70
2009,07,05,10,48,23.70
2009,07,05,10,49,23.80
2009,07,05,10,50,23.80
2009,07,05,10,51,23.90
2009,07,05,10,52,23.90
2009,07,05,10,53,23.90
2009,07,05,10,54,23.90
2009,07,05,10,55,24.00
2009,07,05,10,56,24.10
2009,07,05,10,57,24.10
2009,07,05,10,58,24.10
2009,07,05,10,59,24.20
2009,07,05,11,00,24.20
2009,07,05,11,01,24.20
2009,07,05,11,02,24.10
2009,07,05,11,03,24.20
2009,07,05,11,04,24.20
2009,07,05,11,05,24.20
2009,07,05,11,06,24.20
2009,07,05,11,07,24.20
2009,07,05,11,08,24.10
2009,07,05,11,09,24.10
2009,07,05,11,10,24.00
2009,07,05,11,11,23.90
2009,07,05,11,12,23.80
2009,07,05,11,13,23.80
2009,07,05,11,14,23.70
2009,07,05,11,15,23.60
2009,07,05,11,16,23.60
2009,07,05,11,17,23.60
2009,07,05,11,18,23.60
2009,07,05,11,19,23.60
2009,07,05,11,20,23.60
2009,07,05,11,21,23.60
2009,07,05,11,22,23.70
2009,07,05,11,23,23.70
2009,07,05,11,24,23.70
2009,07,05,11,25,23.60
2009,07,05,11,26,23.60
2009,07,05,11,27,23.60
2009,07,05,11,28,23.60
2009,07,05,11,29,23.60
2009,07,05,11,30,23.40
2009,07,05,11,31,23.40
2009,07,05,11,32,23.40
2009,07,05,11,33,23.50
2009,07,05,11,34,23.60
2009,07,05,11,35,23.60
2009,07,05,11,36,23.60
2009,07,05,11,37,23.70
2009,07,05,11,38,23.70
2009,07,05,11,39,23.70
2009,07,05,11,40,23.80
2009,07,05,11,41,23.80
2009,07,05,11,42,23.80
2009,07,05,11,43,23.90
2009,07,05,11,44,23.90
2009,07,05,11,45,23.90
2009,07,05,11,46,24.00
2009,07,05,11,47,24.10
2009,07,05,11,48,24.10
2009,07,05,11,49,24.10
2009,07,05,11,50,24.10
2009,07,05,11,51,24.10
2009,07,05,11,52,24.10
2009,07,05,11,53,24.10
2009,07,05,11,54,24.10
2009,07,05,11,55,24.10
2009,07,05,11,56,24.10
2009,07,05,11,57,24.20
2009,07,05,11,58,24.30
2009,07,05,11,59,24.30
2009,07,05,12,00,24.30
2009,07,05,12,01,24.30
2009,07,05,12,02,24.30
2009,07,05,12,03,24.30
2009,07,05,12,04,24.30
2009,07,05,12,05,24.20
2009,07,05,12,06,24.20
2009,07,05,12,07,24.10
2009,07,05,12,08,24.10
2009,07,05,12,09,24.10
2009,07,05,12,10,24.10
2009,07,05,12,11,24.10
2009,07,05,12,12,24.10
2009,07,05,12,13,24.10
2009,07,05,12,14,24.10
2009,07,05,12,15,24.10
2009,07,05,12,16,24.10
2009,07,05,12,17,24.10
2009,07,05,12,18,24.10
2009,07,05,12,19,24.20
2009,07,05,12,20,24.20
2009,07,05,12,21,24.20
2009,07,05,12,22,24.30
2009,07,05,12,23,24.30
2009,07,05,12,24,24.40
2009,07,05,12,25,24.50
2009,07,05,12,26,24.60
2009,07,05,12,27,24.80
2009,07,05,12,28,24.90
2009,07,05,12,29,24.90
2009,07,05,12,30,25.00
2009,07,05,12,31,25.00
2009,07,05,12,32,25.10
2009,07,05,12,33,25.10
2009,07,05,12,34,25.10
2009,07,05,12,35,25.10
2009,07,05,12,36,25.10
2009,07,05,12,37,25.10
2009,07,05,12,38,25.10
2009,07,05,12,39,25.00
2009,07,05,12,40,25.00
2009,07,05,12,41,25.00
2009,07,05,12,42,25.00
2009,07,05,12,43,25.00
2009,07,05,12,44,25.00
2009,07,05,12,45,25.00
2009,07,05,12,46,25.10
2009,07,05,12,47,25.10
2009,07,05,12,48,25.20
2009,07,05,12,49,25.20
2009,07,05,12,50,25.20
2009,07,05,12,51,25.30
2009,07,05,12,52,25.40
2009,07,05,12,53,25.40
2009,07,05,12,54,25.40
2009,07,05,12,55,25.50
2009,07,05,12,56,25.60
2009,07,05,12,57,25.70
2009,07,05,12,58,25.70
2009,07,05,12,59,25.70
2009,07,05,13,00,25.80
2009,07,05,13,01,25.80
2009,07,05,13,02,25.80
2009,07,05,13,03,25.90
2009,07,05,13,04,25.90
2009,07,05,13,05,25.90
2009,07,05,13,06,25.80
2009,07,05,13,07,25.60
2009,07,05,13,08,25.50
2009,07,05,13,09,25.50
2009,07,05,13,10,25.50
2009,07,05,13,11,25.50
2009,07,05,13,12,25.40
2009,07,05,13,13,25.40
2009,07,05,13,14,25.30
2009,07,05,13,15,25.30
2009,07,05,13,16,25.30
2009,07,05,13,17,25.20
2009,07,05,13,18,25.20
2009,07,05,13,19,25.20
2009,07,05,13,20,25.30
2009,07,05,13,21,25.30
2009,07,05,13,22,25.40
2009,07,05,13,23,25.50
2009,07,05,13,24,25.60
2009,07,05,13,25,25.70
2009,07,05,13,26,25.70
2009,07,05,13,27,25.80
2009,07,05,13,28,25.90
2009,07,05,13,29,25.90
2009,07,05,13,30,26.00
2009,07,05,13,31,26.00
2009,07,05,13,32,26.00
2009,07,05,13,33,26.00
2009,07,05,13,34,26.00
2009,07,05,13,35,26.00
2009,07,05,13,36,26.00
2009,07,05,13,37,26.00
2009,07,05,13,38,26.10
2009,07,05,13,39,26.10
2009,07,05,13,40,26.20
2009,07,05,13,41,26.30
2009,07,05,13,42,26.40
2009,07,05,13,43,26.40
2009,07,05,13,44,26.60
2009,07,05,13,45,26.60
2009,07,05,13,46,26.60
2009,07,05,13,47,26.70
2009,07,05,13,48,26.70
2009,07,05,13,49,26.80
2009,07,05,13,50,26.80
2009,07,05,13,51,26.70
2009,07,05,13,52,26.70
2009,07,05,13,53,26.70
2009,07,05,13,54,26.60
2009,07,05,13,55,26.60
2009,07,05,13,56,26.60
2009,07,05,13,57,26.60
2009,07,05,13,58,26.60
2009,07,05,13,59,26.50
2009,07,05,14,00,26.40
2009,07,05,14,01,26.30
2009,07,05,14,02,26.20
2009,07,05,14,03,26.30
2009,07,05,14,04,26.30
2009,07,05,14,05,26.40
2009,07,05,14,06,26.50
2009,07,05,14,07,26.60
2009,07,05,14,08,26.60
2009,07,05,14,09,26.60
2009,07,05,14,10,26.60
2009,07,05,14,11,26.60
2009,07,05,14,12,26.60
2009,07,05,14,13,26.60
2009,07,05,14,14,26.50
2009,07,05,14,15,26.40
2009,07,05,14,16,26.40
2009,07,05,14,17,26.30
2009,07,05,14,18,26.20
2009,07,05,14,19,26.10
2009,07,05,14,20,26.10
2009,07,05,14,21,26.10
2009,07,05,14,22,26.00
2009,07,05,14,23,26.00
2009,07,05,14,24,25.90
2009,07,05,14,25,25.90
2009,07,05,14,26,25.90
2009,07,05,14,27,25.90
2009,07,05,14,28,25.90
2009,07,05,14,29,25.90
2009,07,05,14,30,25.80
2009,07,05,14,31,25.80
2009,07,05,14,32,25.80
2009,07,05,14,33,25.80
2009,07,05,14,34,25.80
2009,07,05,14,35,25.70
2009,07,05,14,36,25.70
2009,07,05,14,37,25.60
2009,07,05,14,38,25.60
2009,07,05,14,39,25.60
2009,07,05,14,40,25.60
2009,07,05,14,41,25.60
2009,07,05,14,42,25.60
2009,07,05,14,43,25.60
2009,07,05,14,44,25.60
2009,07,05,14,45,25.60
2009,07,05,14,46,25.50
2009,07,05,14,47,25.50
2009,07,05,14,48,25.50
2009,07,05,14,49,25.50
2009,07,05,14,50,25.50
2009,07,05,14,51,25.40
2009,07,05,14,52,25.30
2009,07,05,14,53,25.30
2009,07,05,14,54,25.20
2009,07,05,14,55,25.20
2009,07,05,14,56,25.20
2009,07,05,14,57,25.20
2009,07,05,14,58,25.20
2009,07,05,14,59,25.30
2009,07,05,15,00,25.40
2009,07,05,15,01,25.40
2009,07,05,15,02,25.50
2009,07,05,15,03,25.50
2009,07,05,15,04,25.50
2009,07,05,15,05,25.50
2009,07,05,15,06,25.40
2009,07,05,15,07,25.40
2009,07,05,15,08,25.40
2009,07,05,15,09,25.30
2009,07,05,15,10,25.40
2009,07,05,15,11,25.40
2009,07,05,15,12,25.40
2009,07,05,15,13,25.40
2009,07,05,15,14,25.40
2009,07,05,15,15,25.40
2009,07,05,15,16,25.40
2009,07,05,15,17,25.50
2009,07,05,15,18,25.60
2009,07,05,15,19,25.60
2009,07,05,15,20,25.70
2009,07,05,15,21,25.70
2009,07,05,15,22,25.80
2009,07,05,15,23,25.90
2009,07,05,15,24,25.90
2009,07,05,15,25,25.90
2009,07,05,15,26,25.90
2009,07,05,15,27,26.00
2009,07,05,15,28,26.00
2009,07,05,15,29,25.90
2009,07,05,15,30,25.90
2009,07,05,15,31,25.90
2009,07,05,15,32,25.90
2009,07,05,15,33,25.80
2009,07,05,15,34,25.80
2009,07,05,15,35,25.80
2009,07,05,15,36,25.80
2009,07,05,15,37,25.80
2009,07,05,15,38,25.70
2009,07,05,15,39,25.70
2009,07,05,15,40,25.70
2009,07,05,15,41,25.60
2009,07,05,15,42,25.60
2009,07,05,15,43,25.50
2009,07,05,15,44,25.50
2009,07,05,15,45,25.40
2009,07,05,15,46,25.40
2009,07,05,15,47,25.40
2009,07,05,15,48,25.50
2009,07,05,15,49,25.50
2009,07,05,15,50,25.60
2009,07,05,15,51,25.70
2009,07,05,15,52,25.80
2009,07,05,15,53,25.80
2009,07,05,15,54,25.80
2009,07,05,15,55,25.80
2009,07,05,15,56,25.80
2009,07,05,15,57,25.70
2009,07,05,15,58,25.60
2009,07,05,15,59,25.50
2009,07,05,16,00,25.40
2009,07,05,16,01,25.40
2009,07,05,16,02,25.30
2009,07,05,16,03,25.20
2009,07,05,16,04,25.20
2009,07,05,16,05,25.20
2009,07,05,16,06,25.10
2009,07,05,16,07,25.10
2009,07,05,16,08,25.00
2009,07,05,16,09,25.00
2009,07,05,16,10,24.90
2009,07,05,16,11,24.90
2009,07,05,16,12,24.80
2009,07,05,16,13,24.70
2009,07,05,16,14,24.70
2009,07,05,16,15,24.70
2009,07,05,16,16,24.70
2009,07,05,16,17,24.60
2009,07,05,16,18,24.60
2009,07,05,16,19,24.60
2009,07,05,16,20,24.60
2009,07,05,16,21,24.70
2009,07,05,16,22,24.70
2009,07,05,16,23,24.70
2009,07,05,16,24,24.70
2009,07,05,16,25,24.70
2009,07,05,16,26,24.70
2009,07,05,16,27,24.70
2009,07,05,16,28,24.70
2009,07,05,16,29,24.70
2009,07,05,16,30,24.70
2009,07,05,16,31,24.60
2009,07,05,16,32,24.60
2009,07,05,16,33,24.50
2009,07,05,16,34,24.40
2009,07,05,16,35,24.40
2009,07,05,16,36,24.40
2009,07,05,16,37,24.30
2009,07,05,16,38,24.30
2009,07,05,16,39,24.30
2009,07,05,16,40,24.30
2009,07,05,16,41,24.30
2009,07,05,16,42,24.30
2009,07,05,16,43,24.40
2009,07,05,16,44,24.40
2009,07,05,16,45,24.30
2009,07,05,16,46,24.30
2009,07,05,16,47,24.30
2009,07,05,16,48,24.40
2009,07,05,16,49,24.30
2009,07,05,16,50,24.30
2009,07,05,16,51,24.30
2009,07,05,16,52,24.30
2009,07,05,16,53,24.40
2009,07,05,16,54,24.40
2009,07,05,16,55,24.30
2009,07,05,16,56,24.30
2009,07,05,16,57,24.30
2009,07,05,16,58,24.30
2009,07,05,16,59,24.30
2009,07,05,17,00,24.30
2009,07,05,17,01,24.30
2009,07,05,17,02,24.30
2009,07,05,17,03,24.30
2009,07,05,17,04,24.30
2009,07,05,17,05,24.30
2009,07,05,17,06,24.30
2009,07,05,17,07,24.20
2009,07,05,17,08,24.20
2009,07,05,17,09,24.20
2009,07,05,17,10,24.20
2009,07,05,17,11,24.20
2009,07,05,17,12,24.20
2009,07,05,17,13,24.10
2009,07,05,17,14,24.10
2009,07,05,17,15,24.10
2009,07,05,17,16,24.10
2009,07,05,17,17,24.10
2009,07,05,17,18,24.10
2009,07,05,17,19,24.10